K5KVN-2 Weather Reports


time (UTC)temp
C
wind
direction
speed
KPH
gust
KPH
rain 1hr
cm
rain 24hr
cm
rain mn
cm
humidity
%
barometer
mb
20260831012215 31 144 6.4 11.3 0.00 0.00 0.00 40 1014.9
20260831011213 32 134 4.8 8.0 0.00 0.00 0.00 40 1014.8
20260831010212 32 132 4.8 6.4 0.00 0.00 0.00 39 1014.8
20260831005219 32 141 4.8 9.7 0.00 0.00 0.00 38 1014.7
20260831004214 33 166 4.8 8.0 0.00 0.00 0.00 36 1014.8
20260831003213 33 174 8.0 11.3 0.00 0.00 0.00 36 1014.9
20260831002212 33 169 8.0 16.1 0.00 0.00 0.00 35 1014.8
20260831001704 33 198 8.0 12.9 0.00 0.00 0.00 35 1014.8
20260831000214 34 171 8.0 14.5 0.00 0.00 0.00 34 1014.9
20260830235211 34 194 6.4 16.1 0.00 0.00 0.00 33 1014.9
20260830234208 35 199 6.4 11.3 0.00 0.00 0.00 32 1014.9
20260830233209 35 194 11.3 20.9 0.00 0.00 0.00 32 1015.1
20260830232652 35 176 8.0 16.1 0.00 0.00 0.00 31 1015.1
20260830231209 35 174 9.7 19.3 0.00 0.00 0.00 31 1014.9
20260830230207 35 194 8.0 12.9 0.00 0.00 0.00 31 1014.9
20260830225207 36 157 9.7 17.7 0.00 0.00 0.00 31 1014.9
20260830224206 36 180 6.4 17.7 0.00 0.00 0.00 31 1014.9
20260830223207 36 182 9.7 16.1 0.00 0.00 0.00 31 1015.0
20260830222207 36 198 9.7 17.7 0.00 0.00 0.00 31 1015.0
20260830221207 36 184 11.3 17.7 0.00 0.00 0.00 32 1015.0
20260830220205 36 196 11.3 24.1 0.00 0.00 0.00 30 1015.0
20260830215205 36 159 9.7 20.9 0.00 0.00 0.00 30 1015.0
20260830214205 36 182 9.7 22.5 0.00 0.00 0.00 31 1015.1
20260830213207 36 180 14.5 32.2 0.00 0.00 0.00 30 1015.3
20260830212206 36 178 9.7 22.5 0.00 0.00 0.00 30 1015.2
20260830211656 37 213 8.0 20.9 0.00 0.00 0.00 29 1015.3
20260830210205 37 173 12.9 27.4 0.00 0.00 0.00 30 1015.3
20260830205204 37 227 11.3 22.5 0.00 0.00 0.00 30 1015.5
20260830204201 37 195 9.7 24.1 0.00 0.00 0.00 30 1015.6
20260830203201 37 184 8.0 20.9 0.00 0.00 0.00 29 1015.6
20260830202201 37 173 9.7 27.4 0.00 0.00 0.00 29 1015.7
20260830201202 37 206 8.0 17.7 0.00 0.00 0.00 30 1016.0
20260830200201 36 164 6.4 20.9 0.00 0.00 0.00 31 1015.9
20260830195202 36 80 6.4 19.3 0.00 0.00 0.00 31 1016.1
20260830194202 36 170 4.8 16.1 0.00 0.00 0.00 32 1016.2
20260830193202 36 180 9.7 20.9 0.00 0.00 0.00 32 1016.3
20260830192202 36 233 8.0 22.5 0.00 0.00 0.00 33 1016.3
20260830191201 36 189 9.7 25.7 0.00 0.00 0.00 33 1016.5
20260830190203 36 146 12.9 25.7 0.00 0.00 0.00 32 1016.5
20260830185202 36 188 8.0 22.5 0.00 0.00 0.00 34 1016.5
20260830183202 36 157 12.9 24.1 0.00 0.00 0.00 34 1016.7
20260830182200 35 177 12.9 27.4 0.00 0.00 0.00 34 1016.8
20260830181159 35 181 11.3 25.7 0.00 0.00 0.00 35 1017.0
20260830180158 35 191 11.3 27.4 0.00 0.00 0.00 35 1017.1
20260830175642 35 202 9.7 22.5 0.00 0.00 0.00 36 1017.5
20260830174637 34 275 14.5 24.1 0.00 0.00 0.00 36 1017.6
20260830173157 34 155 12.9 32.2 0.00 0.00 0.00 35 1017.7
20260830172200 34 211 12.9 32.2 0.00 0.00 0.00 36 1017.7
20260830171157 34 176 16.1 27.4 0.00 0.00 0.00 36 1017.8
20260830170158 33 186 14.5 24.1 0.00 0.00 0.00 38 1018.0
20260830165155 33 230 12.9 22.5 0.00 0.00 0.00 37 1018.2
20260830164633 33 221 12.9 25.7 0.00 0.00 0.00 38 1018.4
20260830162153 33 164 11.3 22.5 0.00 0.00 0.00 40 1018.6
20260830161638 32 201 14.5 25.7 0.00 0.00 0.00 41 1018.6
20260830160153 32 223 16.1 30.6 0.00 0.00 0.00 41 1018.8
20260830155151 32 198 14.5 24.1 0.00 0.00 0.00 42 1018.6
20260830154152 31 177 14.5 25.7 0.00 0.00 0.00 44 1018.6
20260830153152 31 162 16.1 29.0 0.00 0.00 0.00 45 1018.6
20260830152146 30 189 16.1 27.4 0.00 0.00 0.00 46 1018.4
20260830151626 30 182 14.5 24.1 0.00 0.00 0.00 47 1018.3
20260830150146 30 188 17.7 30.6 0.00 0.00 0.00 47 1018.2
20260830145146 29 199 16.1 30.6 0.00 0.00 0.00 50 1018.3
20260830144146 29 167 17.7 32.2 0.00 0.00 0.00 50 1018.3
20260830143146 28 205 16.1 33.8 0.00 0.00 0.00 52 1018.3
20260830142145 28 186 14.5 24.1 0.00 0.00 0.00 53 1018.3
20260830141149 27 180 14.5 24.1 0.00 0.00 0.00 55 1018.6
20260830140151 27 175 11.3 24.1 0.00 0.00 0.00 55 1018.4
20260830135143 27 200 11.3 19.3 0.00 0.00 0.00 56 1018.3
20260830134142 26 180 9.7 22.5 0.00 0.00 0.00 58 1018.4
20260830133142 26 181 8.0 12.9 0.00 0.00 0.00 59 1018.3
20260830132143 25 188 4.8 11.3 0.00 0.00 0.00 59 1018.3
20260830131144 25 175 6.4 11.3 0.00 0.00 0.00 60 1018.3
20260830130144 25 157 4.8 6.4 0.00 0.00 0.00 61 1018.2
20260830125145 24 167 4.8 6.4 0.00 0.00 0.00 62 1018.2
20260830124143 24 182 3.2 6.4 0.00 0.00 0.00 62 1018.3
20260830123142 24 169 1.6 6.4 0.00 0.00 0.00 62 1018.1
20260830122142 23 163 1.6 4.8 0.00 0.00 0.00 62 1017.9
20260830121144 23 171 0.0 3.2 0.00 0.00 0.00 62 1017.9
20260830120142 23 135 1.6 3.2 0.00 0.00 0.00 62 1017.8
20260830115143 23 175 0.0 0.0 0.00 0.00 0.00 62 1017.6
20260830114143 24 165 0.0 4.8 0.00 0.00 0.00 60 1017.5
20260830113143 24 171 1.6 3.2 0.00 0.00 0.00 60 1017.5
20260830112142 24 153 3.2 6.4 0.00 0.00 0.00 59 1017.3
20260830111634 24 143 3.2 8.0 0.00 0.00 0.00 59 1017.3
20260830110144 25 163 4.8 11.3 0.00 0.00 0.00 58 1017.3
20260830105143 25 166 8.0 17.7 0.00 0.00 0.00 58 1017.3
20260830104623 25 142 9.7 16.1 0.00 0.00 0.00 58 1017.2
20260830103621 25 146 9.7 16.1 0.00 0.00 0.00 58 1017.1
20260830102617 24 161 9.7 17.7 0.00 0.00 0.00 59 1017.1
20260830101143 24 137 9.7 14.5 0.00 0.00 0.00 59 1017.1
20260830100142 23 155 8.0 12.9 0.00 0.00 0.00 59 1017.2
20260830095618 23 169 4.8 8.0 0.00 0.00 0.00 60 1017.3
20260830094137 23 160 3.2 6.4 0.00 0.00 0.00 60 1017.3
20260830093134 23 148 3.2 6.4 0.00 0.00 0.00 60 1017.3
20260830092133 23 132 3.2 4.8 0.00 0.00 0.00 60 1017.4
20260830091130 23 126 3.2 4.8 0.00 0.00 0.00 60 1017.3
20260830090130 23 121 3.2 4.8 0.00 0.00 0.00 59 1017.2
20260830085130 23 121 0.0 4.8 0.00 0.00 0.00 59 1017.2
20260830084130 23 83 1.6 3.2 0.00 0.00 0.00 59 1017.1
20260830083132 24 126 1.6 9.7 0.00 0.00 0.00 58 1017.1
20260830082131 24 126 6.4 9.7 0.00 0.00 0.00 56 1016.9
20260830081130 25 137 6.4 11.3 0.00 0.00 0.00 55 1016.9
20260830080132 24 125 6.4 11.3 0.00 0.00 0.00 55 1016.9
20260830075131 25 128 6.4 8.0 0.00 0.00 0.00 56 1017.0
20260830074129 25 140 6.4 8.0 0.00 0.00 0.00 55 1017.0
20260830073132 25 140 6.4 9.7 0.00 0.00 0.00 53 1017.1
20260830072130 25 148 6.4 12.9 0.00 0.00 0.00 53 1017.0
20260830071130 25 157 8.0 11.3 0.00 0.00 0.00 54 1017.1
20260830070131 25 139 6.4 12.9 0.00 0.00 0.00 54 1017.3
20260830065130 25 158 6.4 9.7 0.00 0.00 0.00 54 1017.4
20260830064131 25 188 4.8 8.0 0.00 0.00 0.00 54 1017.5
20260830063129 25 198 3.2 6.4 0.00 0.00 0.00 53 1017.6
20260830062605 25 200 4.8 8.0 0.00 0.00 0.00 53 1017.6
20260830061130 26 150 6.4 11.3 0.00 0.00 0.00 51 1017.5
20260830060129 26 139 6.4 11.3 0.00 0.00 0.00 52 1017.5
20260830055131 26 161 6.4 14.5 0.00 0.00 0.00 51 1017.4
20260830054607 26 152 6.4 14.5 0.00 0.00 0.00 52 1017.4
20260830053131 26 153 8.0 11.3 0.00 0.00 0.00 52 1017.4
20260830052131 26 184 8.0 12.9 0.00 0.00 0.00 52 1017.4
20260830051130 25 161 8.0 14.5 0.00 0.00 0.00 52 1017.4
20260830050129 25 167 8.0 16.1 0.00 0.00 0.00 53 1017.5
20260830045609 25 181 6.4 12.9 0.00 0.00 0.00 54 1017.4
20260830044129 25 176 4.8 9.7 0.00 0.00 0.00 54 1017.6
20260830043129 25 178 3.2 4.8 0.00 0.00 0.00 54 1017.4
20260830042616 26 173 6.4 11.3 0.00 0.00 0.00 52 1017.4
20260830041712 27 128 6.4 11.3 0.00 0.00 0.00 50 1017.4
20260830040129 27 132 8.0 12.9 0.00 0.00 0.00 50 1017.3
20260830035128 27 147 8.0 11.3 0.00 0.00 0.00 50 1017.4
20260830034129 27 131 8.0 14.5 0.00 0.00 0.00 50 1017.3
20260830033129 27 127 8.0 12.9 0.00 0.00 0.00 50 1017.2
20260830032124 27 126 8.0 14.5 0.00 0.00 0.00 49 1017.2
20260830031122 27 137 8.0 14.5 0.00 0.00 0.00 49 1017.1
20260830030123 28 142 8.0 14.5 0.00 0.00 0.00 49 1017.0
20260830025124 28 127 9.7 14.5 0.00 0.00 0.00 48 1017.0
20260830024124 28 136 8.0 12.9 0.00 0.00 0.00 48 1016.7
20260830023128 28 136 8.0 12.9 0.00 0.00 0.00 48 1016.7
20260830022123 28 117 8.0 14.5 0.00 0.00 0.00 47 1016.6
20260830021122 28 155 8.0 14.5 0.00 0.00 0.00 47 1016.5
20260830020123 29 134 6.4 11.3 0.00 0.00 0.00 46 1016.4
20260830015119 29 128 4.8 8.0 0.00 0.00 0.00 46 1016.2
20260830014120 30 138 4.8 8.0 0.00 0.00 0.00 44 1016.2
20260830013600 30 163 6.4 9.7 0.00 0.00 0.00 43 1016.1